Weather in Kendari

Indonesia     3°59′38″S   122°31′33″E
temp.,
°C
wind,
m/s
gust,
m/s
humid.,
%
clouds,
%
prec.,
mm/h
press.,
hPa
HPBL,
m
12 may, wed
wed1223:00+24se019095 0.0 101059
02:00+23sw119261 0.0 100921
05:00+23sw119450 0.0 100924
08:00+27wsw11769 0.0 1011316
11:00+31e346132 0.2 10091413
14:00+30e345938 0.7 10071299
17:00+28e25725 0.3 1007308
20:00+25se12903 0.3 100968
13 may, thu
thu1323:00+24s11945 0.9 100939
02:00+23wsw119642 1.4 100837
05:00+23wsw119757 0.1 100921
08:00+27wsw018019 0.1 1010333
11:00+30ene246584 0.9 10081210
14:00+30e246883 2.6 10061101
17:00+27e24835 0.8 1006254
20:00+24se11945 1.0 100860
14 may, fri
fri1423:00+24ssw11955 0.3 100934
02:00+23wsw11979 0.6 100732
05:00+23sw119767 0.1 100821
08:00+27w118383 0.1 1009282
11:00+28e238070 2.3 1008802
14:00+28e247617 4.6 1006924
17:00+26ese139244 1.9 1006115
20:00+24sse1196100 5.3 100949
15 may, sat
sat1523:00+23wsw119724 0.4 100935
02:00+23wsw119811 0.6 100725
05:00+23wsw11989 0.1 100820
08:00+26sw008899 0.3 1009245
11:00+29e247780 1.4 10081024
14:00+28e348058 4.0 1006880
17:00+26e259116 1.6 1006256
20:00+24e1196100 2.6 100840
16 may, sun
sun1623:00+24n0197100 0.8 100816
02:00+23w0098100 1.1 100720
05:00+23wsw1198100 0.1 100820
08:00+26wnw009154 0.9 1009172
11:00+28e238485 2.8 1008826
14:00+28e248485 6.4 1006719
17:00+26e249476 3.1 1006158
20:00+24se119712 6.1 100851